Time,TemperatureF,DewpointF,PressureIn,WindDirection,WindDirectionDegrees,WindSpeedMPH,WindSpeedGustMPH,Humidity,HourlyPrecipIn,Conditions,Clouds,dailyrainin,SoftwareType,DateUTC
2013-12-20 00:01:00,41.0,34.7,29.93,WNW,292,2.0,-999.0,78,-99.99,,,0.00,Acu-Link.com,2013-12-20 05:01:00,
2013-12-20 00:17:00,41.0,34.7,29.92,ESE,112,0.0,-999.0,78,-99.99,,,0.00,Acu-Link.com,2013-12-20 05:17:00,
2013-12-20 00:32:00,41.0,35.0,29.91,SW,225,1.6,-999.0,79,-99.99,,,0.00,Acu-Link.com,2013-12-20 05:32:00,
2013-12-20 00:47:00,42.8,36.4,29.91,SSE,157,2.7,-999.0,78,-99.99,,,0.00,Acu-Link.com,2013-12-20 05:47:00,
2013-12-20 01:02:00,42.8,36.7,29.91,SSW,202,1.1,-999.0,79,-99.99,,,0.00,Acu-Link.com,2013-12-20 06:02:00,
2013-12-20 01:17:00,42.8,37.1,29.90,ENE,67,2.7,-999.0,80,-99.99,,,0.00,Acu-Link.com,2013-12-20 06:17:00,
2013-12-20 01:32:00,42.8,36.7,29.90,SW,225,0.0,-999.0,79,-99.99,,,0.00,Acu-Link.com,2013-12-20 06:32:00,
2013-12-20 01:47:00,42.8,36.4,29.90,SW,225,3.1,-999.0,78,-99.99,,,0.00,Acu-Link.com,2013-12-20 06:47:00,
2013-12-20 02:02:00,42.8,36.7,29.90,SSE,157,3.1,-999.0,79,-99.99,,,0.00,Acu-Link.com,2013-12-20 07:02:00,
2013-12-20 02:17:00,42.8,37.1,29.89,ESE,112,1.6,-999.0,80,-99.99,,,0.00,Acu-Link.com,2013-12-20 07:17:00,
2013-12-20 02:32:00,42.8,36.1,29.89,ENE,67,0.0,-999.0,77,-99.99,,,0.00,Acu-Link.com,2013-12-20 07:32:00,
2013-12-20 02:47:00,42.8,35.8,29.89,SSW,202,1.6,-999.0,76,-99.99,,,0.00,Acu-Link.com,2013-12-20 07:47:00,
2013-12-20 03:02:00,42.8,35.1,29.89,SSE,157,4.0,-999.0,74,-99.99,,,0.00,Acu-Link.com,2013-12-20 08:02:00,
2013-12-20 03:17:00,42.8,34.8,29.89,SSE,157,5.1,-999.0,73,-99.99,,,0.00,Acu-Link.com,2013-12-20 08:17:00,
2013-12-20 03:32:00,44.6,35.8,29.88,SSE,157,3.1,-999.0,71,-99.99,,,0.00,Acu-Link.com,2013-12-20 08:32:00,
2013-12-20 03:47:00,42.8,34.4,29.88,SE,135,1.1,-999.0,72,-99.99,,,0.00,Acu-Link.com,2013-12-20 08:47:00,
2013-12-20 04:02:00,42.8,34.1,29.87,SW,225,1.6,-999.0,71,-99.99,,,0.00,Acu-Link.com,2013-12-20 09:02:00,
2013-12-20 04:17:00,44.6,35.4,29.88,East,90,5.1,-999.0,70,-99.99,,,0.00,Acu-Link.com,2013-12-20 09:17:00,
2013-12-20 04:32:00,44.6,35.4,29.87,SW,225,2.0,-999.0,70,-99.99,,,0.00,Acu-Link.com,2013-12-20 09:32:00,
2013-12-20 04:47:00,42.8,37.7,29.87,South,180,3.6,-999.0,82,-99.99,,,0.01,Acu-Link.com,2013-12-20 09:47:00,
2013-12-20 05:02:00,42.8,37.4,29.86,SW,225,2.7,-999.0,81,-99.99,,,0.01,Acu-Link.com,2013-12-20 10:02:00,
2013-12-20 05:17:00,42.8,36.4,29.86,WNW,292,3.1,-999.0,78,-99.99,,,0.01,Acu-Link.com,2013-12-20 10:17:00,
2013-12-20 05:32:00,42.8,36.1,29.86,SE,135,3.1,-999.0,77,-99.99,,,0.01,Acu-Link.com,2013-12-20 10:32:00,
2013-12-20 05:47:00,42.8,35.8,29.85,SSW,202,3.1,-999.0,76,-99.99,,,0.01,Acu-Link.com,2013-12-20 10:47:00,
2013-12-20 06:02:00,42.8,38.0,29.84,NNW,337,1.6,-999.0,83,-99.99,,,0.02,Acu-Link.com,2013-12-20 11:02:00,
2013-12-20 06:17:00,41.0,37.7,29.85,SW,225,3.1,-999.0,88,-99.99,,,0.04,Acu-Link.com,2013-12-20 11:17:00,
2013-12-20 06:32:00,41.0,38.6,29.85,SSE,157,1.6,-999.0,91,-99.99,,,0.06,Acu-Link.com,2013-12-20 11:32:00,
2013-12-20 06:47:00,41.0,39.4,29.85,SW,225,2.7,-999.0,94,-99.99,,,0.08,Acu-Link.com,2013-12-20 11:47:00,
2013-12-20 07:02:00,41.0,39.7,29.84,ESE,112,5.6,-999.0,95,-99.99,,,0.09,Acu-Link.com,2013-12-20 12:02:00,
2013-12-20 07:17:00,41.0,39.9,29.85,SSE,157,2.7,-999.0,96,-99.99,,,0.09,Acu-Link.com,2013-12-20 12:17:00,
2013-12-20 07:33:00,41.0,40.5,29.84,SSW,202,2.7,-999.0,98,-99.99,,,0.12,Acu-Link.com,2013-12-20 12:33:00,
2013-12-20 07:48:00,41.0,40.7,29.85,SSE,157,2.7,-999.0,99,-99.99,,,0.14,Acu-Link.com,2013-12-20 12:48:00,
2013-12-20 08:03:00,41.0,40.7,29.85,SSE,157,1.6,-999.0,99,-99.99,,,0.15,Acu-Link.com,2013-12-20 13:03:00,
2013-12-20 08:18:00,41.0,40.7,29.84,SE,135,3.1,-999.0,99,-99.99,,,0.15,Acu-Link.com,2013-12-20 13:18:00,
2013-12-20 08:33:00,41.0,40.7,29.84,SSW,202,2.0,-999.0,99,-99.99,,,0.15,Acu-Link.com,2013-12-20 13:33:00,
2013-12-20 08:48:00,41.0,40.5,29.84,SSW,202,2.7,-999.0,98,-99.99,,,0.15,Acu-Link.com,2013-12-20 13:48:00,
2013-12-20 09:03:00,41.0,39.9,29.84,ESE,112,3.1,-999.0,96,-99.99,,,0.15,Acu-Link.com,2013-12-20 14:03:00,
2013-12-20 09:18:00,42.8,40.6,29.84,SW,225,2.0,-999.0,92,-99.99,,,0.15,Acu-Link.com,2013-12-20 14:18:00,
2013-12-20 09:33:00,42.8,40.4,29.84,SE,135,4.0,-999.0,91,-99.99,,,0.15,Acu-Link.com,2013-12-20 14:33:00,
2013-12-20 09:48:00,42.8,39.8,29.84,SSW,202,2.7,-999.0,89,-99.99,,,0.15,Acu-Link.com,2013-12-20 14:48:00,
2013-12-20 10:03:00,42.8,39.8,29.85,WNW,292,2.0,-999.0,89,-99.99,,,0.15,Acu-Link.com,2013-12-20 15:03:00,
2013-12-20 10:18:00,42.8,40.1,29.85,West,270,2.0,-999.0,90,-99.99,,,0.15,Acu-Link.com,2013-12-20 15:18:00,
2013-12-20 10:33:00,42.8,40.4,29.85,SSE,157,3.6,-999.0,91,-99.99,,,0.17,Acu-Link.com,2013-12-20 15:33:00,
2013-12-20 10:48:00,44.6,42.1,29.85,South,180,2.7,-999.0,91,-99.99,,,0.17,Acu-Link.com,2013-12-20 15:48:00,
2013-12-20 11:03:00,44.6,41.3,29.84,SSW,202,2.7,-999.0,88,-99.99,,,0.17,Acu-Link.com,2013-12-20 16:03:00,
2013-12-20 11:18:00,44.6,40.7,29.84,NNE,22,3.1,-999.0,86,-99.99,,,0.17,Acu-Link.com,2013-12-20 16:18:00,
2013-12-20 11:33:00,46.4,41.8,29.84,ESE,112,4.0,-999.0,84,-99.99,,,0.17,Acu-Link.com,2013-12-20 16:33:00,
2013-12-20 11:48:00,46.4,41.2,29.84,SW,225,3.6,-999.0,82,-99.99,,,0.17,Acu-Link.com,2013-12-20 16:48:00,
2013-12-20 12:03:00,46.4,41.8,29.83,SSE,157,2.7,-999.0,84,-99.99,,,0.17,Acu-Link.com,2013-12-20 17:03:00,
2013-12-20 12:18:00,46.4,43.6,29.83,SSW,202,3.1,-999.0,90,-99.99,,,0.19,Acu-Link.com,2013-12-20 17:18:00,
2013-12-20 12:33:00,46.4,43.6,29.82,East,90,3.6,-999.0,90,-99.99,,,0.19,Acu-Link.com,2013-12-20 17:33:00,
2013-12-20 12:48:00,46.4,44.2,29.82,SSE,157,2.7,-999.0,92,-99.99,,,0.20,Acu-Link.com,2013-12-20 17:48:00,
2013-12-20 13:03:00,46.4,43.6,29.81,WSW,247,2.0,-999.0,90,-99.99,,,0.20,Acu-Link.com,2013-12-20 18:03:00,
2013-12-20 13:18:00,46.4,43.3,29.80,SSE,157,4.0,-999.0,89,-99.99,,,0.20,Acu-Link.com,2013-12-20 18:18:00,
2013-12-20 13:33:00,46.4,43.6,29.80,SSW,202,1.6,-999.0,90,-99.99,,,0.20,Acu-Link.com,2013-12-20 18:33:00,
2013-12-20 13:48:00,46.4,43.9,29.80,SW,225,2.0,-999.0,91,-99.99,,,0.20,Acu-Link.com,2013-12-20 18:48:00,
2013-12-20 14:03:00,46.4,44.5,29.78,South,180,2.7,-999.0,93,-99.99,,,0.21,Acu-Link.com,2013-12-20 19:03:00,
2013-12-20 14:18:00,46.4,44.5,29.78,SSE,157,4.0,-999.0,93,-99.99,,,0.21,Acu-Link.com,2013-12-20 19:18:00,
2013-12-20 14:33:00,46.4,44.5,29.78,WSW,247,2.7,-999.0,93,-99.99,,,0.21,Acu-Link.com,2013-12-20 19:33:00,
2013-12-20 14:48:00,46.4,44.8,29.79,NNE,22,2.7,-999.0,94,-99.99,,,0.21,Acu-Link.com,2013-12-20 19:48:00,
2013-12-20 15:03:00,46.4,45.3,29.77,NE,45,3.1,-999.0,96,-99.99,,,0.22,Acu-Link.com,2013-12-20 20:03:00,
2013-12-20 15:18:00,46.4,45.6,29.78,WSW,247,3.6,-999.0,97,-99.99,,,0.22,Acu-Link.com,2013-12-20 20:18:00,
2013-12-20 15:33:00,46.4,45.9,29.78,ESE,112,3.1,-999.0,98,-99.99,,,0.24,Acu-Link.com,2013-12-20 20:33:00,
2013-12-20 15:48:00,46.4,46.1,29.78,SSE,157,4.7,-999.0,99,-99.99,,,0.24,Acu-Link.com,2013-12-20 20:48:00,
2013-12-20 16:03:00,46.4,46.1,29.78,WSW,247,3.6,-999.0,99,-99.99,,,0.24,Acu-Link.com,2013-12-20 21:03:00,
2013-12-20 16:18:00,46.4,46.1,29.78,West,270,4.7,-999.0,99,-99.99,,,0.24,Acu-Link.com,2013-12-20 21:18:00,
2013-12-20 16:33:00,46.4,46.1,29.78,SE,135,5.6,-999.0,99,-99.99,,,0.24,Acu-Link.com,2013-12-20 21:33:00,
2013-12-20 16:48:00,46.4,46.1,29.78,SW,225,3.1,-999.0,99,-99.99,,,0.24,Acu-Link.com,2013-12-20 21:48:00,
2013-12-20 17:03:00,46.4,46.1,29.79,SSW,202,2.7,-999.0,99,-99.99,,,0.24,Acu-Link.com,2013-12-20 22:03:00,
2013-12-20 17:18:00,46.4,46.1,29.79,SE,135,3.6,-999.0,99,-99.99,,,0.24,Acu-Link.com,2013-12-20 22:18:00,
2013-12-20 17:33:00,48.2,47.9,29.79,SSE,157,3.1,-999.0,99,-99.99,,,0.24,Acu-Link.com,2013-12-20 22:33:00,
2013-12-20 17:48:00,48.2,47.9,29.79,SE,135,5.6,-999.0,99,-99.99,,,0.24,Acu-Link.com,2013-12-20 22:48:00,
2013-12-20 18:03:00,48.2,47.9,29.79,SW,225,2.7,-999.0,99,-99.99,,,0.24,Acu-Link.com,2013-12-20 23:03:00,
2013-12-20 18:18:00,50.0,49.7,29.79,SW,225,2.7,-999.0,99,-99.99,,,0.24,Acu-Link.com,2013-12-20 23:18:00,
2013-12-20 18:33:00,50.0,49.7,29.79,WSW,247,6.3,-999.0,99,-99.99,,,0.24,Acu-Link.com,2013-12-20 23:33:00,
2013-12-20 18:49:00,50.0,49.7,29.79,South,180,3.1,-999.0,99,-99.99,,,0.24,Acu-Link.com,2013-12-20 23:49:00,
2013-12-20 19:04:00,50.0,49.7,29.80,SE,135,4.0,-999.0,99,-99.99,,,0.24,Acu-Link.com,2013-12-21 00:04:00,
2013-12-20 19:19:00,50.0,49.7,29.79,SSE,157,4.7,-999.0,99,-99.99,,,0.24,Acu-Link.com,2013-12-21 00:19:00,
2013-12-20 19:34:00,50.0,49.7,29.80,SE,135,2.7,-999.0,99,-99.99,,,0.24,Acu-Link.com,2013-12-21 00:34:00,
2013-12-20 19:49:00,50.0,49.7,29.79,SE,135,3.1,-999.0,99,-99.99,,,0.24,Acu-Link.com,2013-12-21 00:49:00,
2013-12-20 20:04:00,50.0,49.7,29.78,West,270,2.0,-999.0,99,-99.99,,,0.24,Acu-Link.com,2013-12-21 01:04:00,
2013-12-20 20:19:00,50.0,49.7,29.79,SSE,157,2.7,-999.0,99,-99.99,,,0.24,Acu-Link.com,2013-12-21 01:19:00,
2013-12-20 20:34:00,50.0,49.7,29.78,SW,225,2.0,-999.0,99,-99.99,,,0.24,Acu-Link.com,2013-12-21 01:34:00,
2013-12-20 20:49:00,51.8,51.5,29.79,West,270,5.1,-999.0,99,-99.99,,,0.24,Acu-Link.com,2013-12-21 01:49:00,
2013-12-20 21:04:00,51.8,51.5,29.79,SSW,202,2.0,-999.0,99,-99.99,,,0.24,Acu-Link.com,2013-12-21 02:04:00,
2013-12-20 21:19:00,51.8,51.5,29.80,SSE,157,3.1,-999.0,99,-99.99,,,0.24,Acu-Link.com,2013-12-21 02:19:00,
2013-12-20 21:34:00,51.8,51.5,29.79,SE,135,3.1,-999.0,99,-99.99,,,0.24,Acu-Link.com,2013-12-21 02:34:00,
2013-12-20 21:49:00,51.8,51.5,29.79,SSE,157,3.6,-999.0,99,-99.99,,,0.24,Acu-Link.com,2013-12-21 02:49:00,
2013-12-20 22:04:00,51.8,51.5,29.78,SSW,202,3.1,-999.0,99,-99.99,,,0.24,Acu-Link.com,2013-12-21 03:04:00,
2013-12-20 22:19:00,51.8,51.5,29.78,SSW,202,2.7,-999.0,99,-99.99,,,0.24,Acu-Link.com,2013-12-21 03:19:00,
2013-12-20 22:34:00,51.8,51.5,29.78,SSW,202,3.1,-999.0,99,-99.99,,,0.24,Acu-Link.com,2013-12-21 03:34:00,
2013-12-20 22:49:00,53.6,53.3,29.78,SSE,157,3.1,-999.0,99,-99.99,,,0.24,Acu-Link.com,2013-12-21 03:49:00,
2013-12-20 23:04:00,53.6,53.3,29.78,SW,225,2.0,-999.0,99,-99.99,,,0.24,Acu-Link.com,2013-12-21 04:04:00,
2013-12-20 23:19:00,53.6,53.3,29.78,WSW,247,4.7,-999.0,99,-99.99,,,0.25,Acu-Link.com,2013-12-21 04:19:00,
2013-12-20 23:34:00,53.6,53.0,29.77,SSE,157,5.6,-999.0,98,-99.99,,,0.25,Acu-Link.com,2013-12-21 04:34:00,
2013-12-20 23:49:00,53.6,53.0,29.77,SW,225,4.7,-999.0,98,-99.99,,,0.25,Acu-Link.com,2013-12-21 04:49:00,